When you browse on this site, cookies collect data to enhance your experience and personalize the content and advertising you see.
Visit our Privacy Policy to learn more. By continuing to use the site, you agree to this use of cookies and data.
  • In Deutschland
  • Länderverzeichnis
  • Für 7 Tage
  • Wassertemperatur
  • Satellitenkarten
  • Wetterkarte
  • Widgets
  • user-avatar
    Anmelden

    Stündliche Wetter Quito

    Heute, 23 Mai, Donnerstag

    Zeit Temperatur Niederschläge Wind Luftdruck Luftfeuchtigkeit
    00:00 +14°C° 0 mm 0 m/S 622 mmHg 57%
    01:00 +15°C° 0 mm 1 m/S 622 mmHg 58%
    02:00 +15°C° 0 mm 1 m/S 622 mmHg 60%
    03:00 +14°C° 0 mm 1 m/S 622 mmHg 62%
    04:00 +14°C° 0 mm 1 m/S 622 mmHg 63%
    05:00 +14°C° 0 mm 1 m/S 622 mmHg 64%
    06:00 +15°C° 0 mm 1 m/S 623 mmHg 65%
    07:00 +15°C° 0 mm 1 m/S 623 mmHg 66%
    08:00 +19°C° 0 mm 1 m/S 624 mmHg 58%
    09:00 +21°C° 0 mm 2 m/S 625 mmHg 51%
    10:00 +25°C° 0 mm 3 m/S 626 mmHg 43%
    11:00 +26°C° 0 mm 3 m/S 625 mmHg 40%
    12:00 +26°C° 0 mm 2 m/S 625 mmHg 37%
    13:00 +27°C° 0 mm 2 m/S 625 mmHg 34%
    14:00 +27°C° 0 mm 2 m/S 624 mmHg 35%
    15:00 +27°C° 0 mm 1 m/S 624 mmHg 37%
    16:00 +26°C° 0 mm 1 m/S 623 mmHg 38%
    17:00 +24°C° 0 mm 1 m/S 623 mmHg 41%
    18:00 +22°C° 0 mm 1 m/S 623 mmHg 45%
    19:00 +20°C° 0 mm 1 m/S 622 mmHg 49%
    20:00 +19°C° 0 mm 1 m/S 623 mmHg 49%
    21:00 +19°C° 0 mm 1 m/S 623 mmHg 49%
    22:00 +18°C° 0 mm 1 m/S 623 mmHg 49%
    23:00 +16°C° 0 mm 0 m/S 623 mmHg 50%

    Morgen, 24 Mai, Freitag

    Zeit Temperatur Niederschläge Wind Luftdruck Luftfeuchtigkeit
    00:00 +15°C° 0 mm 0 m/S 623 mmHg 51%
    01:00 +15°C° 0 mm 0 m/S 622 mmHg 52%
    02:00 +14°C° 0 mm 0 m/S 622 mmHg 54%
    03:00 +14°C° 0 mm 0 m/S 622 mmHg 55%
    04:00 +13°C° 0 mm 0 m/S 622 mmHg 57%
    05:00 +14°C° 0 mm 0 m/S 622 mmHg 59%
    06:00 +14°C° 0 mm 0 m/S 623 mmHg 60%
    07:00 +15°C° 0 mm 0 m/S 623 mmHg 62%
    08:00 +19°C° 0 mm 1 m/S 624 mmHg 56%
    09:00 +21°C° 0 mm 2 m/S 625 mmHg 50%
    10:00 +25°C° 0 mm 2 m/S 626 mmHg 44%
    11:00 +26°C° 0 mm 2 m/S 626 mmHg 41%
    12:00 +27°C° 0 mm 2 m/S 626 mmHg 38%
    13:00 +28°C° 0 mm 2 m/S 625 mmHg 36%
    14:00 +27°C° 0 mm 2 m/S 625 mmHg 36%
    15:00 +27°C° 0 mm 2 m/S 625 mmHg 37%
    16:00 +27°C° 0 mm 2 m/S 624 mmHg 38%
    17:00 +24°C° 0 mm 1 m/S 624 mmHg 45%
    18:00 +22°C° 0 mm 1 m/S 623 mmHg 51%
    19:00 +19°C° 0 mm 1 m/S 623 mmHg 57%
    20:00 +19°C° 0 mm 1 m/S 623 mmHg 56%
    21:00 +19°C° 0 mm 1 m/S 623 mmHg 55%
    22:00 +18°C° 0 mm 1 m/S 624 mmHg 54%
    23:00 +18°C° 0 mm 1 m/S 624 mmHg 53%

    übermorgen, 25 Mai, Samstag

    Zeit Temperatur Niederschläge Wind Luftdruck Luftfeuchtigkeit
    00:00 +18°C° 0 mm 1 m/S 623 mmHg 53%
    01:00 +18°C° 0 mm 1 m/S 623 mmHg 52%
    02:00 +16°C° 0 mm 1 m/S 623 mmHg 54%
    03:00 +15°C° 0 mm 2 m/S 622 mmHg 57%
    04:00 +14°C° 0 mm 2 m/S 622 mmHg 59%
    05:00 +15°C° 0 mm 1 m/S 622 mmHg 60%
    06:00 +15°C° 0 mm 1 m/S 623 mmHg 61%
    07:00 +15°C° 0 mm 1 m/S 623 mmHg 61%
    08:00 +18°C° 0 mm 2 m/S 624 mmHg 53%
    09:00 +20°C° 0 mm 3 m/S 625 mmHg 45%
    10:00 +23°C° 0 mm 4 m/S 626 mmHg 37%
    11:00 +25°C° 0 mm 4 m/S 626 mmHg 34%
    12:00 +26°C° 0 mm 3 m/S 625 mmHg 32%
    13:00 +27°C° 0 mm 3 m/S 625 mmHg 29%
    14:00 +27°C° 0 mm 3 m/S 625 mmHg 30%
    15:00 +26°C° 0 mm 2 m/S 624 mmHg 31%
    16:00 +26°C° 0 mm 2 m/S 624 mmHg 32%
    17:00 +23°C° 0 mm 1 m/S 623 mmHg 38%
    18:00 +21°C° 0 mm 1 m/S 623 mmHg 43%
    19:00 +16°C° 0 mm 0 m/S 622 mmHg 48%
    20:00 +16°C° 0 mm 0 m/S 623 mmHg 49%
    21:00 +16°C° 0 mm 1 m/S 623 mmHg 49%
    22:00 +16°C° 0 mm 1 m/S 623 mmHg 50%
    23:00 +15°C° 0 mm 1 m/S 623 mmHg 51%

    26 Mai, Sonntag

    Zeit Temperatur Niederschläge Wind Luftdruck Luftfeuchtigkeit
    00:00 +14°C° 0 mm 1 m/S 623 mmHg 52%
    01:00 +14°C° 0 mm 1 m/S 622 mmHg 54%
    02:00 +13°C° 0 mm 1 m/S 622 mmHg 54%
    03:00 +13°C° 0 mm 1 m/S 622 mmHg 54%
    04:00 +12°C° 0 mm 1 m/S 622 mmHg 55%
    05:00 +12°C° 0 mm 1 m/S 622 mmHg 56%
    06:00 +13°C° 0 mm 1 m/S 623 mmHg 56%
    07:00 +13°C° 0 mm 1 m/S 623 mmHg 57%
    08:00 +16°C° 0 mm 2 m/S 624 mmHg 50%
    09:00 +19°C° 0 mm 3 m/S 625 mmHg 42%
    10:00 +22°C° 0 mm 4 m/S 626 mmHg 35%
    11:00 +24°C° 0 mm 3 m/S 625 mmHg 33%
    12:00 +25°C° 0 mm 3 m/S 625 mmHg 31%
    13:00 +26°C° 0 mm 2 m/S 625 mmHg 28%
    14:00 +26°C° 0 mm 2 m/S 624 mmHg 29%
    15:00 +25°C° 0 mm 2 m/S 624 mmHg 30%
    16:00 +25°C° 0 mm 2 m/S 623 mmHg 30%
    17:00 +22°C° 0 mm 1 m/S 623 mmHg 35%
    18:00 +20°C° 0 mm 1 m/S 623 mmHg 40%
    19:00 +16°C° 0 mm 1 m/S 622 mmHg 45%
    20:00 +16°C° 0 mm 1 m/S 623 mmHg 46%
    21:00 +15°C° 0 mm 1 m/S 623 mmHg 47%
    22:00 +15°C° 0 mm 1 m/S 623 mmHg 48%
    23:00 +14°C° 0 mm 1 m/S 623 mmHg 49%

    27 Mai, Montag

    Zeit Temperatur Niederschläge Wind Luftdruck Luftfeuchtigkeit
    00:00 +14°C° 0 mm 1 m/S 622 mmHg 50%
    01:00 +14°C° 0 mm 1 m/S 622 mmHg 51%
    02:00 +13°C° 0 mm 1 m/S 622 mmHg 53%
    03:00 +13°C° 0 mm 1 m/S 622 mmHg 55%
    04:00 +12°C° 0 mm 1 m/S 622 mmHg 57%
    05:00 +13°C° 0 mm 1 m/S 622 mmHg 58%
    06:00 +13°C° 0 mm 1 m/S 623 mmHg 60%
    07:00 +13°C° 0 mm 1 m/S 623 mmHg 62%
    08:00 +16°C° 0 mm 2 m/S 624 mmHg 55%
    09:00 +19°C° 0 mm 2 m/S 625 mmHg 48%
    10:00 +21°C° 0 mm 3 m/S 625 mmHg 41%
    11:00 +22°C° 0 mm 3 m/S 625 mmHg 38%
    12:00 +24°C° 0 mm 3 m/S 624 mmHg 35%
    13:00 +25°C° 0 mm 2 m/S 624 mmHg 32%
    14:00 +25°C° 0 mm 2 m/S 624 mmHg 32%
    15:00 +25°C° 0 mm 2 m/S 623 mmHg 33%
    16:00 +25°C° 0 mm 1 m/S 623 mmHg 34%
    17:00 +22°C° 0 mm 1 m/S 623 mmHg 39%
    18:00 +20°C° 0 mm 1 m/S 622 mmHg 44%
    19:00 +15°C° 0 mm 0 m/S 622 mmHg 49%
    20:00 +15°C° 0 mm 0 m/S 622 mmHg 50%
    21:00 +14°C° 0 mm 0 m/S 622 mmHg 52%
    22:00 +14°C° 0 mm 0 m/S 622 mmHg 53%
    23:00 +13°C° 0 mm 0 m/S 622 mmHg 54%

    28 Mai, Dienstag

    Zeit Temperatur Niederschläge Wind Luftdruck Luftfeuchtigkeit
    00:00 +13°C° 0 mm 0 m/S 622 mmHg 56%
    01:00 +12°C° 0 mm 0 m/S 622 mmHg 58%
    02:00 +12°C° 0 mm 0 m/S 621 mmHg 59%
    03:00 +12°C° 0 mm 1 m/S 621 mmHg 60%
    04:00 +12°C° 0 mm 1 m/S 621 mmHg 62%
    05:00 +12°C° 0 mm 1 m/S 622 mmHg 62%
    06:00 +13°C° 0 mm 1 m/S 622 mmHg 62%
    07:00 +13°C° 0 mm 1 m/S 623 mmHg 62%
    08:00 +16°C° 0 mm 1 m/S 624 mmHg 54%
    09:00 +19°C° 0 mm 2 m/S 624 mmHg 46%
    10:00 +22°C° 0 mm 3 m/S 625 mmHg 39%
    11:00 +24°C° 0 mm 3 m/S 625 mmHg 36%
    12:00 +25°C° 0 mm 3 m/S 624 mmHg 33%
    13:00 +26°C° 0 mm 2 m/S 624 mmHg 29%
    14:00 +26°C° 0 mm 2 m/S 624 mmHg 30%
    15:00 +25°C° 0 mm 2 m/S 623 mmHg 30%
    16:00 +25°C° 0 mm 1 m/S 623 mmHg 31%
    17:00 +23°C° 0 mm 1 m/S 623 mmHg 36%
    18:00 +20°C° 0 mm 1 m/S 622 mmHg 41%
    19:00 +16°C° 0 mm 1 m/S 622 mmHg 46%
    20:00 +16°C° 0 mm 1 m/S 622 mmHg 46%
    21:00 +16°C° 0 mm 1 m/S 622 mmHg 45%
    22:00 +15°C° 0 mm 1 m/S 622 mmHg 45%
    23:00 +14°C° 0 mm 0 m/S 622 mmHg 46%
    Mehr zeigen